Location: Baili�vre
(50.0696°N, 4.2409°E)
Time: 16:36:57
(UTC+00:00)

Cosmos 2173 Rocket - Pass Details

Date: 08 August 2020
Orbit: 945 x 1000 km, 83.0° (Epoch: 25 September)

Event Time Altitude Azimuth Distance (km) Brightness Sun altitude
Exits shadow 22:21:07 34° 191° (S) 1,524 4.6 -21.4°
Maximum altitude 22:24:00 87° 278° (W) 969 3.9 -21.5°
Drops below altitude 10° 22:30:10 10° 9° (N) 2,690 7.1 -21.9°
Sets 22:32:39 0° 10° (N) 3,635 8.0 -22.0°
